Weather History for Slayton, MN

Change the Weather History Date:

Thursday, April 25, 2013

  Actual Average (KOTG) Record (KOTG)
Temperature  
Mean Temperature 36 °F -  
Max Temperature 50 °F 58 °F 82 °F (2012)
Min Temperature 21 °F 37 °F 24 °F (2013)
Degree Days  
Heating Degree Days 30    
Moisture  
Dew Point 28 °F    
Average Humidity 73    
Maximum Humidity 87    
Minimum Humidity 56    
Precipitation  
Precipitation 0.00 in - - ()
Sea Level Pressure  
Sea Level Pressure 30.10 in    
Wind  
Wind Speed 10 mph (SSW)    
Max Wind Speed 22 mph    
Max Gust Speed 26 mph    
Visibility 10 miles    
Events      
Averages and records for this station are not official NWS values.
T = Trace of Precipitation, MM = Missing Value Source: NWS Daily Summary

Daily Weather History Graph

Daily Weather History Graph

Search for Another Location

Airport:

Trip Planner

Search our weather history database for the weather conditions in past years. The results will help you decide how hot, cold, wet, or windy it might be!

Date:

Astronomy

Apr. 25, 2013 Rise Set
Actual Time 6:23 AM CDT 8:19 PM CDT
Civil Twilight 5:52 AM CDT 8:50 PM CDT
Nautical Twilight 5:14 AM CDT 9:28 PM CDT
Astronomical Twilight 4:32 AM CDT 10:10 PM CDT
Moon 8:35 PM CDT 6:07 AM CDT
Length of Visible Light 14h 58m
Length of Day
13h 56m
Full, 100% of the Moon is Illuminated
Apr 25
Full
Apr 25
Full
May 2
Last Quarter
May 9
New
May 17
First Quarter

Hourly Weather History & Observations

Time (CDT) Temp. Windchill Dew Point Humidity Pressure Visibility Wind Dir Wind Speed Gust Speed Precip Events Conditions
12:15 AM 29.1 °F 18.4 °F 22.6 °F 77% 30.10 in 10.0 mi WNW 13.8 mph - N/A   Clear
12:35 AM 28.4 °F 18.5 °F 21.6 °F 76% 30.10 in 10.0 mi WNW 11.5 mph - N/A   Clear
12:55 AM 27.7 °F 17.6 °F 21.2 °F 77% 30.12 in 10.0 mi WNW 11.5 mph - N/A   Clear
1:15 AM 27.5 °F 17.4 °F 20.5 °F 75% 30.12 in 10.0 mi WNW 11.5 mph - N/A   Clear
1:35 AM 26.6 °F 16.2 °F 20.7 °F 78% 30.12 in 10.0 mi WNW 11.5 mph - N/A   Clear
1:54 AM 24.6 °F 17.7 °F 20.3 °F 84% 30.13 in 10.0 mi WNW 5.8 mph - N/A   Clear
2:15 AM 25.2 °F 16.5 °F 20.1 °F 81% 30.13 in 10.0 mi West 8.1 mph - N/A   Clear
2:35 AM 25.7 °F 16.4 °F 20.1 °F 79% 30.13 in 10.0 mi West 9.2 mph - N/A   Clear
2:55 AM 25.2 °F 15.1 °F 19.8 °F 80% 30.13 in 10.0 mi West 10.4 mph - N/A   Clear
3:15 AM 24.8 °F 16.1 °F 20.3 °F 83% 30.13 in 10.0 mi West 8.1 mph - N/A   Clear
3:35 AM 24.1 °F 13.7 °F 19.4 °F 82% 30.14 in 10.0 mi West 10.4 mph - N/A   Clear
3:55 AM 23.9 °F 14.2 °F 19.0 °F 82% 30.14 in 10.0 mi West 9.2 mph - N/A   Clear
4:15 AM 23.9 °F 15.0 °F 19.6 °F 84% 30.14 in 10.0 mi West 8.1 mph - N/A   Clear
4:34 AM 23.9 °F 14.2 °F 19.8 °F 84% 30.14 in 10.0 mi WSW 9.2 mph - N/A   Clear
4:55 AM 23.2 °F 14.1 °F 19.4 °F 85% 30.14 in 10.0 mi West 8.1 mph - N/A   Clear
5:15 AM 22.6 °F 11.9 °F 18.9 °F 85% 30.15 in 10.0 mi WSW 10.4 mph - N/A   Clear
5:34 AM 22.6 °F 12.6 °F 19.0 °F 86% 30.15 in 10.0 mi WSW 9.2 mph - N/A   Clear
5:55 AM 22.5 °F 11.7 °F 19.0 °F 87% 30.15 in 10.0 mi WSW 10.4 mph - N/A   Clear
6:15 AM 22.1 °F 12.8 °F 18.7 °F 87% 30.17 in 10.0 mi West 8.1 mph - N/A   Clear
6:35 AM 21.7 °F 14.3 °F 18.3 °F 87% 30.17 in 10.0 mi West 5.8 mph - N/A   Clear
6:55 AM 22.6 °F 13.4 °F 18.5 °F 84% 30.17 in 10.0 mi West 8.1 mph - N/A   Clear
7:15 AM 23.0 °F 15.8 °F 18.7 °F 84% 30.18 in 10.0 mi West 5.8 mph - N/A   Clear
7:35 AM 21.7 °F 13.2 °F 18.1 °F 86% 30.19 in 10.0 mi WSW 6.9 mph - N/A   Clear
7:55 AM 23.9 °F 16.8 °F 18.9 °F 81% 30.19 in 10.0 mi West 5.8 mph - N/A   Clear
8:15 AM 25.5 °F 19.9 °F 19.2 °F 77% 30.19 in 10.0 mi West 4.6 mph - N/A   Clear
8:35 AM 26.4 °F 18.0 °F 20.3 °F 78% 30.20 in 10.0 mi WSW 8.1 mph - N/A   Clear
8:55 AM 28.6 °F 21.5 °F 21.4 °F 74% 30.20 in 10.0 mi WSW 6.9 mph - N/A   Clear
9:15 AM 29.7 °F 23.7 °F 20.8 °F 70% 30.20 in 10.0 mi SW 5.8 mph - N/A   Clear
9:35 AM 31.1 °F 24.5 °F 22.3 °F 70% 30.20 in 10.0 mi SW 6.9 mph - N/A   Clear
9:55 AM 32.0 °F 27.5 °F 21.9 °F 66% 30.20 in 10.0 mi SW 4.6 mph - N/A   Clear
10:15 AM 32.9 °F 28.5 °F 21.9 °F 64% 30.20 in 10.0 mi SW 4.6 mph - N/A   Clear
10:35 AM 33.8 °F 30.8 °F 21.9 °F 62% 30.20 in 10.0 mi SSW 3.5 mph - N/A   Clear
10:55 AM 34.9 °F 32.0 °F 22.6 °F 61% 30.19 in 10.0 mi SSW 3.5 mph - N/A   Clear
11:15 AM 35.1 °F 30.1 °F 24.3 °F 65% 30.19 in 10.0 mi SE 5.8 mph - N/A   Clear
11:35 AM 36.0 °F 32.1 °F 25.0 °F 64% 30.19 in 10.0 mi SSE 4.6 mph - N/A   Clear
11:55 AM 37.6 °F 32.3 °F 24.8 °F 60% 30.18 in 10.0 mi South 6.9 mph - N/A   Clear
12:15 PM 38.5 °F 34.1 °F 23.9 °F 56% 30.18 in 10.0 mi SSE 5.8 mph - N/A   Clear
12:35 PM 39.2 °F 33.6 °F 26.4 °F 60% 30.17 in 10.0 mi SSE 8.1 mph - N/A   Clear
12:55 PM 39.9 °F 34.5 °F 28.4 °F 63% 30.16 in 10.0 mi SSE 8.1 mph - N/A   Clear
1:16 PM 41.4 °F 34.7 °F 31.6 °F 68% 30.16 in 10.0 mi SSE 11.5 mph - N/A   Clear
1:35 PM 42.3 °F 36.8 °F 32.7 °F 69% 30.15 in 10.0 mi SSE 9.2 mph - N/A   Clear
1:55 PM 44.1 °F 38.1 °F 32.7 °F 64% 30.14 in 10.0 mi South 11.5 mph - N/A   Clear
2:17 PM 46.4 °F 41.1 °F 34.2 °F 62% 30.13 in 10.0 mi South 11.5 mph - N/A   Clear
2:35 PM 46.4 °F 41.9 °F 35.2 °F 65% 30.12 in 10.0 mi SSE 9.2 mph - N/A   Clear
2:55 PM 47.1 °F - 36.3 °F 66% 30.11 in 10.0 mi SSE 10.4 mph - N/A   Clear
3:15 PM 48.0 °F - 36.5 °F 64% 30.10 in 10.0 mi SSE 10.4 mph - N/A   Clear
3:35 PM 48.6 °F - 37.6 °F 66% 30.09 in 10.0 mi SSE 9.2 mph - N/A   Clear
3:55 PM 48.6 °F - 37.4 °F 65% 30.07 in 10.0 mi SSE 10.4 mph - N/A   Clear
4:16 PM 49.3 °F - 37.2 °F 63% 30.06 in 10.0 mi South 10.4 mph - N/A   Clear
4:35 PM 50.0 °F - 37.8 °F 63% 30.05 in 10.0 mi SSE 10.4 mph - N/A   Clear
4:56 PM 50.4 °F - 37.2 °F 61% 30.05 in 10.0 mi SSE 10.4 mph - N/A   Clear
5:15 PM 50.0 °F - 38.3 °F 64% 30.04 in 10.0 mi SSE 9.2 mph - N/A   Clear
5:34 PM 50.0 °F - 38.3 °F 64% 30.03 in 10.0 mi SSE 11.5 mph - N/A   Clear
5:56 PM 49.6 °F - 37.6 °F 63% 30.02 in 10.0 mi SSE 11.5 mph - N/A   Clear
6:15 PM 48.7 °F - 38.1 °F 67% 30.01 in 10.0 mi SE 11.5 mph - N/A   Clear
6:34 PM 49.5 °F - 39.2 °F 68% 30.01 in 10.0 mi SSE 9.2 mph - N/A   Clear
6:55 PM 48.7 °F - 38.3 °F 67% 30.00 in 10.0 mi SSE 11.5 mph - N/A   Clear
7:15 PM 46.2 °F 41.2 °F 36.5 °F 69% 29.99 in 10.0 mi SE 10.4 mph - N/A   Clear
7:34 PM 45.0 °F 39.3 °F 36.7 °F 73% 29.98 in 10.0 mi SE 11.5 mph - N/A   Clear
7:55 PM 43.2 °F 37.4 °F 36.7 °F 78% 29.98 in 10.0 mi SE 10.4 mph - N/A   Clear
8:15 PM 43.0 °F 36.4 °F 36.5 °F 78% 29.97 in 10.0 mi SE 12.7 mph - N/A   Clear
8:34 PM 42.4 °F 35.7 °F 36.1 °F 78% 29.97 in 10.0 mi SE 12.7 mph - N/A   Clear
8:56 PM 41.9 °F 35.0 °F 36.0 °F 79% 29.96 in 10.0 mi SE 12.7 mph - N/A   Clear
9:15 PM 42.1 °F 34.9 °F 35.6 °F 78% 29.97 in 10.0 mi SE 13.8 mph - N/A   Clear
9:34 PM 41.9 °F 35.0 °F 35.6 °F 78% 29.97 in 10.0 mi SE 12.7 mph - N/A   Clear
9:55 PM 41.0 °F 33.9 °F 35.6 °F 81% 29.97 in 10.0 mi SE 12.7 mph - N/A   Clear
10:15 PM 41.0 °F 34.3 °F 35.6 °F 81% 29.98 in 10.0 mi SE 11.5 mph - N/A   Clear
10:34 PM 40.6 °F 33.4 °F 35.6 °F 82% 29.98 in 10.0 mi SE 12.7 mph - N/A   Scattered Clouds
10:55 PM 43.7 °F 36.3 °F 35.4 °F 73% 29.97 in 10.0 mi SSE 16.1 mph - N/A   Clear
11:15 PM 45.0 °F 36.6 °F 35.4 °F 69% 29.96 in 10.0 mi South 21.9 mph 26.5 mph N/A   Clear
11:34 PM 46.4 °F 39.0 °F 34.9 °F 64% 29.96 in 10.0 mi South 19.6 mph 25.3 mph N/A   Scattered Clouds
11:55 PM 48.2 °F - 35.2 °F 61% 29.95 in 10.0 mi South 15.0 mph 21.9 mph N/A   Scattered Clouds